Regional Weather Roundup
Issued by NWS

Home | Current Version | Previous Version | Text Only | Print | Product List | Glossary On
Versions: 1 2 3 4 5 6 7 8 9 10 11 12 13 14 15 16 17 18 19 20 21 22 23 24 25 26 27 28 29 30 31 32 33 34 35 36 37 38 39 40 41 42 43 44 45 46 47 48 49 50
000
ASUS46 KPQR 211010
RWROR

OREGON REGIONAL WEATHER ROUNDUP
NATIONAL WEATHER SERVICE PORTLAND OR
300 AM PDT SAT OCT 21 2017

NOTE: "FAIR" INDICATES FEW OR NO CLOUDS BELOW 12,000 FEET WITH
NO SIGNIFICANT WEATHER AND/OR OBSTRUCTIONS TO VISIBILITY.

ORZ001>013-211100-
NORTHWEST OREGON


CITY           SKY/WX    TMP DP  RH WIND       PRES   REMARKS
ASTORIA        LGT RAIN  49  46  90 SE9       29.83F
NEWPORT        LGT RAIN  48  46  93 SE12      29.92F
PORTLAND       LGT RAIN  48  46  93 SE10      29.96F
VANCOUVER WA   LGT RAIN  49  47  93 SE8       29.95F
SCAPPOOSE      LGT RAIN  48  46  93 S9        29.93F
HILLSBORO      LGT RAIN  48  45  89 S12G23    29.93F
AURORA         LGT RAIN  49  46  90 S16G22    29.96F
MCMINNVILLE    RAIN      48  48 100 S17       29.96S
SALEM          RAIN      48  43  82 S17G25    29.95F
CORVALLIS      LGT RAIN  47  44  90 S15       29.97F
EUGENE         LGT RAIN  46  45  96 SE9       29.99F
$$

ORZ021-028-211100-
SOUTHWEST OREGON


CITY           SKY/WX    TMP DP  RH WIND       PRES   REMARKS
NORTH BEND     LGT RAIN  49  47  93 SE10      29.97F
BROOKINGS      LGT RAIN  49  46  90 SE8       30.12S
ROSEBURG       LGT RAIN  48  42  80 S10       30.02F
SEXTON SUMMIT  CLOUDY    34  33  96 S18G32    30.01F WCI  23
GRANTS PASS    CLOUDY    45  41  87 S5        30.13F
MEDFORD        LGT RAIN  42  41  96 N3        30.11S
$$

ORZ014>016-041-211100-
COLUMBIA GORGE


CITY           SKY/WX    TMP DP  RH WIND       PRES   REMARKS
TROUTDALE      LGT RAIN  49  45  86 E3        29.97S
HOOD RIVER     CLOUDY    43  41  93 CALM      29.98S
THE DALLES     CLOUDY    43  38  82 CALM      29.99S
$$

ORZ029>031-041-044-049-050-061>064-502-503-505>511-211100-
EASTERN OREGON


CITY           SKY/WX    TMP DP  RH WIND       PRES   REMARKS
MADRAS         CLOUDY    43  43 100 SE7       29.99F
REDMOND        CLOUDY    42  26  53 S15G22    29.98S
BEND           CLOUDY    41  28  60 S12       30.00S
PRINEVILLE     CLOUDY    39  28  65 S10       30.00S WCI  32
KLAMATH FALLS  MOCLDY    33  32  96 SE6       30.11S WCI  28
LAKEVIEW       PTCLDY    30  30 100 S3        30.11S
HERMISTON      CLOUDY    42  35  76 CALM      30.00S
PENDLETON      CLOUDY    43  30  60 S8        29.99F
JOHN DAY       MOCLDY    39  28  63 S14       30.04S WCI  31
MEACHAM        CLOUDY    31  28  89 CALM      29.99S
LA GRANDE      CLOUDY    34  29  82 SE6       30.04S WCI  29
BAKER CITY     PTCLDY    28  24  85 CALM      30.04S
BURNS          CLOUDY    22  22 100 NE5       30.09R WCI  16
ROME             N/A     31  26  82 S8        30.08F WCI  23
ONTARIO        CLEAR     32  27  81 E5        30.10R WCI  27
$$



USA.gov is the U.S. government's official web portal to all federal, state and local government web resources and services.